Weather History for KEOK - November, 2012

Change the Weather History Date:

Thursday, November 22, 2012

  Actual Average Record
Temperature  
Mean Temperature 54 °F -  
Max Temperature 66 °F 49 °F 75 °F (2010)
Min Temperature 42 °F 30 °F 10 °F (1937)
Degree Days  
Heating Degree Days 11    
Growing Degree Days 4 (Base 50)    
Moisture  
Dew Point 41 °F    
Average Humidity 58    
Maximum Humidity 70    
Minimum Humidity 42    
Precipitation  
Precipitation 0.00 in - - ()
Sea Level Pressure  
Sea Level Pressure 29.94 in    
Wind  
Wind Speed 13 mph (SW)    
Max Wind Speed 24 mph    
Max Gust Speed 33 mph    
Visibility 10 miles    
Events Rain    
Averages and records for this station are not official NWS values.
T = Trace of Precipitation, MM = Missing Value Source: NWS Daily Summary

Daily Weather History Graph

Daily Weather History Graph

Search for Another Location

Airport or City:

Trip Planner

Search our weather history database for the weather conditions in past years. The results will help you decide how hot, cold, wet, or windy it might be!

Date:

Astronomy

Nov. 22, 2012 Rise Set
Actual Time 7:00 AM CST 4:43 PM CST
Civil Twilight 6:30 AM CST 5:12 PM CST
Nautical Twilight 5:57 AM CST 5:46 PM CST
Astronomical Twilight 5:24 AM CST 6:18 PM CST
Moon 1:29 PM CST (11/22) 1:19 AM CST (11/22)
Length of Visible Light 10h 42m
Length of Day
9h 42m
Waxing Gibbous, 71% of the Moon is Illuminated
Nov 22
Waxing Gibbous
Nov 28
Full
Dec 6
Last Quarter
Dec 13
New
Dec 19
First Quarter

Hourly Weather History & Observations

Time (CST) Temp. Windchill Dew Point Humidity Pressure Visibility Wind Dir Wind Speed Gust Speed Precip Events Conditions
12:15 AM 53.6 °F - 39.2 °F 58% 30.05 in 10.0 mi South 9.2 mph 16.1 mph N/A   Clear
12:35 AM 53.6 °F - 39.2 °F 58% 30.04 in 10.0 mi South 9.2 mph - N/A   Clear
12:55 AM 53.6 °F - 39.2 °F 58% 30.03 in 10.0 mi South 10.4 mph - N/A   Clear
1:15 AM 53.6 °F - 39.2 °F 58% 30.03 in 10.0 mi South 11.5 mph 17.3 mph N/A   Clear
1:35 AM 53.6 °F - 37.4 °F 54% 30.02 in 10.0 mi South 12.7 mph 18.4 mph N/A   Clear
1:55 AM 53.6 °F - 37.4 °F 54% 30.02 in 10.0 mi South 8.1 mph - N/A   Clear
2:15 AM 53.6 °F - 37.4 °F 54% 30.02 in 10.0 mi South 10.4 mph 16.1 mph N/A   Clear
2:35 AM 53.6 °F - 37.4 °F 54% 30.01 in 10.0 mi South 13.8 mph 20.7 mph N/A   Clear
2:55 AM 53.6 °F - 37.4 °F 54% 30.00 in 10.0 mi South 11.5 mph 18.4 mph N/A   Clear
3:15 AM 53.6 °F - 39.2 °F 58% 29.99 in 10.0 mi South 11.5 mph - N/A   Clear
3:35 AM 51.8 °F - 39.2 °F 62% 29.98 in 10.0 mi South 11.5 mph - N/A   Clear
3:55 AM 51.8 °F - 39.2 °F 62% 29.98 in 10.0 mi South 15.0 mph 19.6 mph N/A   Clear
4:15 AM 51.8 °F - 39.2 °F 62% 29.97 in 10.0 mi South 12.7 mph 20.7 mph N/A   Clear
4:35 AM 51.8 °F - 39.2 °F 62% 29.96 in 10.0 mi South 9.2 mph 17.3 mph N/A   Clear
4:55 AM 53.6 °F - 39.2 °F 58% 29.96 in 10.0 mi South 13.8 mph 17.3 mph N/A   Clear
5:15 AM 51.8 °F - 39.2 °F 62% 29.96 in 10.0 mi South 13.8 mph 18.4 mph N/A   Clear
5:35 AM 51.8 °F - 39.2 °F 62% 29.95 in 10.0 mi South 13.8 mph 21.9 mph N/A   Clear
5:55 AM 53.6 °F - 37.4 °F 54% 29.95 in 10.0 mi South 13.8 mph 20.7 mph N/A   Scattered Clouds
6:15 AM 53.6 °F - 37.4 °F 54% 29.94 in 10.0 mi South 13.8 mph 20.7 mph N/A   Mostly Cloudy
6:35 AM 53.6 °F - 37.4 °F 54% 29.93 in 10.0 mi South 13.8 mph 20.7 mph N/A   Overcast
6:55 AM 55.4 °F - 37.4 °F 51% 29.93 in 10.0 mi South 16.1 mph 24.2 mph N/A   Mostly Cloudy
7:15 AM 53.6 °F - 39.2 °F 58% 29.92 in 10.0 mi South 17.3 mph 25.3 mph N/A   Scattered Clouds
7:35 AM 53.6 °F - 39.2 °F 58% 29.92 in 10.0 mi South 17.3 mph 25.3 mph N/A   Mostly Cloudy
7:55 AM 53.6 °F - 39.2 °F 58% 29.92 in 10.0 mi South 15.0 mph 24.2 mph N/A   Overcast
8:15 AM 53.6 °F - 39.2 °F 58% 29.93 in 10.0 mi South 13.8 mph 23.0 mph N/A   Overcast
8:35 AM 53.6 °F - 41.0 °F 62% 29.92 in 10.0 mi South 20.7 mph 26.5 mph N/A   Overcast
8:55 AM 55.4 °F - 41.0 °F 58% 29.91 in 10.0 mi South 16.1 mph 23.0 mph N/A   Overcast
9:15 AM 55.4 °F - 41.0 °F 58% 29.90 in 10.0 mi South 17.3 mph 23.0 mph N/A   Scattered Clouds
9:35 AM 55.4 °F - 42.8 °F 63% 29.90 in 10.0 mi SSW 18.4 mph 25.3 mph N/A   Clear
9:55 AM 57.2 °F - 42.8 °F 59% 29.90 in 10.0 mi South 17.3 mph 23.0 mph N/A   Clear
10:15 AM 57.2 °F - 44.6 °F 63% 29.90 in 10.0 mi SSW 16.1 mph 21.9 mph N/A   Scattered Clouds
10:35 AM 59.0 °F - 42.8 °F 55% 29.90 in 10.0 mi SSW 13.8 mph 19.6 mph N/A   Scattered Clouds
10:55 AM 59.0 °F - 42.8 °F 55% 29.88 in 10.0 mi SSW 12.7 mph 20.7 mph N/A   Clear
11:15 AM 59.0 °F - 44.6 °F 59% 29.88 in 10.0 mi SSW 12.7 mph 20.7 mph N/A   Clear
11:35 AM 59.0 °F - 44.6 °F 59% 29.87 in 10.0 mi SSW 11.5 mph 16.1 mph N/A   Clear
11:55 AM 59.0 °F - 44.6 °F 59% 29.86 in 10.0 mi South 8.1 mph - N/A   Clear
12:15 PM 60.8 °F - 46.4 °F 59% 29.85 in 10.0 mi South 6.9 mph - N/A   Clear
12:35 PM 62.6 °F - 46.4 °F 55% 29.84 in 10.0 mi SSW 10.4 mph - N/A   Clear
12:55 PM 62.6 °F - 46.4 °F 55% 29.83 in 10.0 mi SSW 10.4 mph - N/A   Clear
1:15 PM 64.4 °F - 46.4 °F 52% 29.82 in 10.0 mi SSW 9.2 mph - N/A   Clear
1:35 PM 66.2 °F - 46.4 °F 49% 29.81 in 10.0 mi SSW 17.3 mph - N/A   Clear
1:55 PM 66.2 °F - 46.4 °F 49% 29.81 in 10.0 mi SW 18.4 mph 23.0 mph N/A   Clear
2:15 PM 66.2 °F - 46.4 °F 49% 29.80 in 10.0 mi SSW 12.7 mph 20.7 mph N/A   Clear
2:35 PM 66.2 °F - 48.2 °F 52% 29.80 in 10.0 mi SW 15.0 mph - N/A   Clear
2:55 PM 66.2 °F - 48.2 °F 52% 29.80 in 10.0 mi SW 13.8 mph - N/A   Scattered Clouds
3:15 PM 64.4 °F - 51.8 °F 64% 29.80 in 10.0 mi SSW 10.4 mph - N/A Rain Light Rain
3:35 PM 64.4 °F - 50.0 °F 59% 29.82 in 10.0 mi WSW 10.4 mph 17.3 mph N/A   Mostly Cloudy
3:55 PM 66.2 °F - 50.0 °F 56% 29.83 in 10.0 mi WSW 12.7 mph - N/A Rain Light Rain
4:15 PM 64.4 °F - 50.0 °F 59% 29.83 in 10.0 mi WSW 16.1 mph 20.7 mph N/A   Light Drizzle
4:35 PM 64.4 °F - 48.2 °F 56% 29.84 in 10.0 mi WSW 13.8 mph 20.7 mph N/A   Scattered Clouds
4:55 PM 64.4 °F - 48.2 °F 56% 29.85 in 10.0 mi SW 15.0 mph 20.7 mph N/A   Scattered Clouds
5:15 PM 64.4 °F - 50.0 °F 59% 29.85 in 10.0 mi SW 12.7 mph 17.3 mph N/A   Scattered Clouds
5:55 PM 64.4 °F - 50.0 °F 59% 29.87 in 10.0 mi SW 9.2 mph - N/A   Overcast
6:15 PM 64.4 °F - 50.0 °F 59% 29.89 in 10.0 mi WSW 10.4 mph - N/A   Overcast
6:35 PM 64.4 °F - 42.8 °F 45% 29.91 in 10.0 mi NW 24.2 mph 33.4 mph N/A   Overcast
6:55 PM 60.8 °F - 37.4 °F 42% 29.93 in 10.0 mi NW 18.4 mph 29.9 mph N/A   Mostly Cloudy
7:15 PM 60.8 °F - 37.4 °F 42% 29.94 in 10.0 mi NW 12.7 mph 20.7 mph N/A   Overcast
7:55 PM 53.6 °F - 37.4 °F 54% 29.98 in 10.0 mi NW 17.3 mph 32.2 mph N/A   Scattered Clouds
8:15 PM 51.8 °F - 37.4 °F 58% 30.00 in 10.0 mi NW 17.3 mph 32.2 mph N/A   Clear
8:35 PM 51.8 °F - 37.4 °F 58% 30.02 in 10.0 mi NW 16.1 mph 26.5 mph N/A   Clear
8:55 PM 50.0 °F - 35.6 °F 58% 30.03 in 10.0 mi NW 19.6 mph 25.3 mph N/A   Clear
9:15 PM 48.2 °F - 35.6 °F 62% 30.04 in 10.0 mi NW 17.3 mph 31.1 mph N/A   Clear
9:35 PM 48.2 °F - 35.6 °F 62% 30.05 in 10.0 mi WNW 18.4 mph 26.5 mph N/A   Clear
9:55 PM 46.4 °F 40.1 °F 35.6 °F 66% 30.06 in 10.0 mi NW 15.0 mph 26.5 mph N/A   Clear
10:15 PM 46.4 °F 39.0 °F 33.8 °F 62% 30.08 in 10.0 mi NW 19.6 mph 24.2 mph N/A   Clear
10:35 PM 44.6 °F 37.4 °F 33.8 °F 66% 30.09 in 10.0 mi WNW 16.1 mph 23.0 mph N/A   Clear
10:55 PM 44.6 °F 37.4 °F 33.8 °F 66% 30.10 in 10.0 mi WNW 16.1 mph 19.6 mph N/A   Clear
11:15 PM 42.8 °F 35.4 °F 33.8 °F 70% 30.11 in 10.0 mi WNW 15.0 mph 19.6 mph N/A   Clear
11:35 PM 42.8 °F 35.8 °F 32.0 °F 66% 30.11 in 10.0 mi WNW 13.8 mph 21.9 mph N/A   Clear
11:55 PM 42.8 °F 35.8 °F 33.8 °F 70% 30.12 in 10.0 mi WNW 13.8 mph 19.6 mph N/A   Clear